Flag for Germany Weather past 2 weeks in Prenzlau, Brandenburg, Germany

Now
68 °F

Clear.


Feels Like: 68 °F
Forecast: 61 / 74 °F
Wind: 6 mph from Northeast

Location: Szczecin Airport

Current Time: Jul 25, 2014 at 1:26:18 AM

Latest Report: Jul 25, 2014 at 1:00 AM


Visibility: 10 mi

Pressure: 30.01 "Hg

Humidity: 64%

Dew point: 55 °F

Location of PrenzlauLocation

Historic Weather in Prenzlau — Graph

°F

Prenzlau temperature yesterday

Maximum temperature yesterday: 79 °F (at 12:00 PM)
Minimum temperature yesterday: 61 °F (at 2:00 AM)
Average temperature yesterday: 69 °F

Past Weeks' High & Low Weather Summary

 TemperatureHumidityPressure
High88 °F (Jul 20, 4:00 PM)100% (Jul 13, 4:30 AM)30.18 "Hg (Jul 13, 4:30 AM)
Low54 °F (Jul 12, 4:30 AM)31% (Jul 10, 5:00 PM)29.71 "Hg (Jul 10, 12:00 AM)
Average69 °F69%29.96 "Hg
* Reported Midnight between Jul 9 and Jul 10 — Jul 25 12:30 AM, Prenzlau, Weather by CustomWeather, © 2014

Note: Actual official high and low records may vary slightly from our data, if they occured in-between our weather recording intervals... More about our weather records

Advertising

Prenzlau weather history for previous 24 hours

 ConditionsComfort  
Time TempWeatherWind HumidityBarometerVisibility
12:30 AM
Jul 25
68 °FClear.7 mph64%30.01 "Hg10 mi
12:00 AM68 °FLight rain. Clear.7 mph69%30.01 "HgN/A
11:30 PM
Jul 24
68 °FClear.6 mph73%30.01 "Hg10 mi
11:00 PM66 °FClear.5 mph83%30.01 "Hg10 mi
10:30 PM66 °FClear.2 mph88%30.01 "Hg10 mi
10:00 PM66 °FSunny.2 mph88%30.01 "Hg10 mi
9:30 PM68 °FSunny.3 mph83%30.01 "Hg10 mi
9:00 PM68 °FSunny.No wind78%30.01 "Hg10 mi
8:30 PM68 °FSunny.2 mph78%30.01 "Hg10 mi
8:00 PM70 °FSunny.3 mph73%30.01 "Hg10 mi
7:30 PM70 °FSunny.5 mph73%30.01 "Hg10 mi
7:00 PM70 °FSunny.7 mph73%30.01 "Hg10 mi
6:30 PM70 °FSunny.7 mph73%30.01 "Hg10 mi
6:00 PM70 °FSunny.8 mph73%30.01 "Hg10 mi
5:30 PM72 °FSunny.7 mph69%30.01 "Hg10 mi
5:00 PM72 °FSunny.7 mph69%30.01 "Hg10 mi
4:30 PM72 °FSunny.7 mph65%30.04 "Hg10 mi
4:00 PM73 °FSunny.7 mph57%30.04 "Hg10 mi
3:30 PM77 °FSunny.5 mph47%30.04 "Hg10 mi
3:00 PM79 °FSunny.7 mph42%30.01 "Hg10 mi
2:30 PM79 °FSunny.7 mph42%30.04 "Hg10 mi
2:00 PM79 °FSunny.7 mph39%30.04 "Hg10 mi
1:30 PM79 °FSunny.8 mph39%30.04 "Hg10 mi
1:00 PM79 °FSunny.9 mph39%30.04 "Hg10 mi
12:30 PM79 °FSunny.12 mph39%30.04 "Hg10 mi
12:00 PM79 °FSunny.10 mph42%30.04 "Hg10 mi
11:30 AM77 °FSunny.10 mph47%30.04 "Hg10 mi
11:00 AM77 °FSunny.9 mph47%30.04 "Hg10 mi
10:30 AM77 °FSunny.12 mph47%30.04 "Hg10 mi
10:00 AM75 °FSunny.9 mph54%30.04 "Hg10 mi
9:30 AM72 °FSunny.8 mph65%30.04 "Hg10 mi
9:00 AM70 °FSunny.6 mph69%30.04 "Hg10 mi
8:30 AM68 °FPassing clouds.7 mph73%30.04 "HgN/A
7:30 AM64 °FSunny.7 mph83%30.04 "Hg10 mi
7:00 AM63 °FSunny.8 mph88%30.04 "Hg10 mi
6:30 AM61 °FSunny.8 mph88%30.04 "Hg10 mi
6:00 AM61 °FClear.7 mph88%30.04 "Hg10 mi
5:30 AM61 °FClear.8 mph88%30.04 "Hg10 mi
5:00 AM61 °FClear.5 mph88%30.04 "Hg10 mi
4:30 AM63 °FClear.3 mph83%30.07 "Hg10 mi
4:00 AM63 °FClear.6 mph83%30.07 "Hg10 mi
3:00 AM61 °FClear.5 mph83%30.07 "Hg10 mi
2:30 AM61 °FClear.5 mph83%30.07 "Hg10 mi
2:00 AM61 °FClear.3 mph83%30.07 "Hg10 mi
1:30 AM63 °FClear.5 mph77%30.07 "Hg10 mi
1:00 AM64 °FClear.6 mph73%30.07 "Hg10 mi
Weather by CustomWeather, © 2014

See weather overviewHow to use our weather pages